Theta_e
278 278 278 278 278 278 279 281 283 285 288 291 293 295 296 296 296 296 296 295 295 293 292 292 293 293 294 295 298 303 308 310 310 310 309 310 310 311 311 311 310 310 308 306 306 304 304 303 302 302 300 299 300 301 301 301 301 302 302 303 302 302 301 297 296 291 292 293 293 292 293 293 292 294 293 294 294 294 296 298 298 297 299 299 299
276 276 277 278 278 278 279 281 283 284 284 285 289 292 295 296 296 296 295 295 295 294 293 293 293 293 293 294 296 301 306 310 309 309 308 309 309 310 310 309 309 309 307 305 305 305 304 304 303 302 300 300 300 300 301 300 299 300 300 301 301 301 301 297 296 291 288 289 290 292 292 294 291 293 293 293 293 292 294 294 294 293 295 295 295
275 276 276 276 277 277 278 279 281 281 282 283 286 289 293 295 296 296 295 295 295 294 293 293 292 292 292 293 295 297 303 308 309 309 308 308 308 308 309 308 308 307 306 306 305 305 304 303 303 302 301 299 299 300 301 300 299 299 299 300 300 300 300 300 296 290 288 288 290 290 290 291 291 292 293 293 293 293 292 292 292 293 293 293 294
274 274 275 275 276 277 277 278 279 279 279 281 282 285 288 291 294 295 295 296 295 295 294 293 292 292 292 292 293 296 299 306 308 308 308 308 308 308 308 308 308 307 307 306 306 305 304 304 303 303 301 299 299 299 300 300 299 298 298 299 299 299 299 298 297 291 289 288 288 289 290 290 290 292 293 292 292 292 292 291 291 291 291 292 293
273 274 274 274 275 275 276 277 278 278 278 279 279 281 282 283 287 292 295 295 295 294 293 293 292 291 291 291 292 294 297 302 307 307 308 308 308 308 308 308 308 307 307 307 304 305 305 304 304 304 302 300 299 299 299 299 299 298 297 297 297 298 298 298 295 293 290 288 288 289 290 290 291 292 292 291 291 290 289 290 290 291 291 291 291
272 273 273 273 274 275 275 276 277 277 278 278 279 279 280 281 282 284 292 294 294 294 293 292 291 290 290 290 291 292 296 299 305 307 307 307 308 308 308 307 307 307 307 307 307 307 306 305 305 304 303 301 300 300 299 298 298 297 297 296 296 296 296 296 294 291 290 289 288 288 289 289 289 290 291 292 290 289 288 288 288 289 290 291 291
272 271 272 272 273 274 275 275 276 277 277 278 279 279 279 280 281 282 287 292 292 292 291 290 289 289 289 290 290 291 294 297 303 306 306 307 307 307 306 306 307 307 307 307 307 307 307 306 306 305 304 303 302 300 299 298 297 297 296 296 296 295 293 293 291 290 289 288 288 289 288 289 289 288 290 291 291 290 288 288 287 288 289 290 290
271 271 271 271 272 273 274 275 276 276 277 278 278 278 279 279 280 281 284 288 291 291 290 290 289 289 289 289 290 291 292 295 300 306 306 306 306 306 306 305 306 307 306 307 307 307 307 306 306 306 305 304 303 302 300 298 297 295 296 297 296 293 292 292 290 290 289 288 288 288 288 288 288 289 290 289 288 287 289 289 287 287 288 289 290
271 270 270 270 271 272 273 274 275 276 276 277 278 278 278 278 279 279 281 284 288 290 291 290 289 288 288 289 289 290 291 294 298 304 305 306 306 305 305 304 305 305 305 305 306 307 307 306 306 306 303 299 298 299 299 298 297 294 295 294 293 292 292 291 290 290 289 289 288 288 288 287 287 287 287 287 287 288 288 288 288 288 288 288 289
270 270 270 270 271 272 272 273 273 274 275 276 277 277 278 278 278 278 279 282 284 286 289 289 289 288 288 288 288 290 291 294 295 299 302 304 305 305 305 304 304 304 303 303 304 305 305 306 305 299 296 295 295 296 297 297 296 297 296 294 293 292 292 291 290 290 290 288 288 288 287 287 287 287 287 288 289 289 288 288 287 287 287 287 286
270 270 269 270 271 271 271 271 272 272 274 275 276 276 277 277 278 278 279 280 281 282 285 287 288 288 288 288 288 289 291 293 295 299 301 301 305 305 303 303 303 303 302 303 302 302 304 304 305 299 296 294 296 295 297 296 296 296 295 295 294 293 292 291 291 290 290 289 289 288 288 287 287 288 288 289 289 288 288 288 287 287 286 285 284
269 269 270 270 270 270 270 271 271 272 273 274 275 277 277 277 277 277 278 279 280 282 284 286 287 288 288 288 289 289 290 292 295 298 300 301 301 304 304 303 302 303 303 302 303 302 302 302 303 303 301 299 300 298 296 295 295 295 295 294 294 294 294 293 291 290 290 289 289 288 288 288 288 288 288 288 288 288 288 288 287 287 286 286 285
269 269 269 270 270 270 270 270 270 271 272 274 275 276 277 277 277 277 277 279 280 282 283 285 286 288 288 288 288 289 290 292 294 297 299 300 301 303 303 303 301 301 302 302 302 301 301 300 301 303 302 295 296 300 299 296 294 294 294 293 293 294 295 295 294 292 292 291 289 289 289 289 288 288 289 289 289 288 288 287 287 287 287 287 287
268 268 269 269 269 270 270 270 270 271 272 273 275 276 276 276 277 277 278 278 279 281 282 284 286 287 288 288 288 289 290 291 294 297 298 299 300 302 303 303 302 302 302 302 301 300 300 300 300 300 301 298 299 300 299 297 293 292 292 292 292 292 293 294 293 293 292 292 290 289 290 291 289 290 290 290 288 288 288 287 288 287 287 287 288
267 268 268 268 268 269 269 269 269 270 270 271 274 276 276 277 277 277 278 278 280 281 282 284 285 286 287 288 288 289 290 292 294 297 298 299 300 301 304 303 300 301 302 301 301 300 300 301 300 300 300 298 298 298 298 294 292 291 291 290 291 292 293 294 294 294 293 292 291 291 292 293 292 292 290 290 289 290 290 289 288 288 287 287 286
266 267 267 267 268 268 268 268 269 269 269 269 270 274 276 277 277 277 278 278 281 283 284 285 286 286 287 288 288 288 290 292 294 297 298 299 300 300 302 300 299 299 299 299 301 301 300 299 299 299 299 298 295 296 296 294 292 290 290 290 290 291 293 294 294 295 294 294 294 293 293 294 294 291 290 290 290 289 289 288 287 287 286 286 284
266 266 266 266 267 267 267 267 267 267 268 268 269 270 274 276 277 277 277 278 281 283 284 285 286 287 287 288 288 289 289 291 294 297 297 299 299 300 299 299 298 297 297 298 299 299 298 299 299 298 298 297 295 296 296 294 291 291 290 290 289 290 291 293 294 294 294 295 295 295 295 296 296 295 294 294 291 290 289 288 286 287 286 284 283
265 265 265 266 266 266 267 267 266 267 267 267 268 270 273 275 276 278 278 280 282 285 286 286 287 288 288 288 288 288 289 292 294 296 297 298 298 298 298 298 297 297 296 296 298 298 297 294 295 297 297 297 295 296 296 293 291 291 290 289 289 289 290 291 292 293 293 294 294 294 295 295 295 295 294 294 293 291 289 287 287 287 286 286 283
264 264 265 265 266 266 266 266 266 266 266 267 268 269 272 275 277 278 279 280 282 286 287 287 288 288 288 289 289 289 290 292 295 296 297 297 296 297 299 298 296 296 296 295 296 296 295 293 293 296 297 296 295 296 296 293 291 291 291 290 289 289 290 290 290 290 290 290 290 291 290 292 292 292 291 293 292 291 290 289 289 287 286 286 285
264 264 265 265 265 265 266 266 266 266 266 267 268 269 272 275 277 278 279 281 283 286 288 288 288 288 289 289 289 290 290 292 293 296 296 297 297 297 299 297 295 295 295 295 295 295 294 293 294 295 296 296 295 295 295 294 292 291 291 291 290 289 290 289 289 290 290 290 290 289 289 289 290 289 290 291 291 290 289 290 289 289 287 287 286
264 264 264 264 264 265 265 265 265 266 267 267 268 270 272 275 278 278 279 280 283 287 288 288 288 288 289 289 290 290 291 292 292 295 296 297 297 297 298 297 296 295 295 294 294 294 294 294 294 294 296 295 294 294 295 295 293 291 291 291 291 291 291 290 289 290 290 289 289 289 289 289 289 289 289 290 289 289 289 289 289 289 289 288 286
263 263 263 263 264 264 264 265 266 267 268 268 269 270 273 277 279 280 281 283 286 286 286 287 287 288 289 289 290 290 291 291 293 294 296 297 297 297 298 296 296 295 295 294 294 294 294 295 293 293 295 294 294 294 295 294 294 290 291 293 294 294 290 290 290 290 290 290 290 289 288 288 289 289 289 289 289 289 289 289 289 289 290 290 289
262 262 262 262 263 264 265 265 266 267 268 270 270 272 276 279 280 281 282 283 285 285 285 286 286 287 288 290 291 291 292 291 292 293 295 296 297 297 297 296 297 295 295 294 294 294 296 296 294 292 293 294 293 294 294 294 293 291 293 294 294 293 291 291 290 289 290 290 289 289 288 289 288 288 288 288 289 288 288 289 289 289 289 289 288
261 261 261 262 263 264 265 266 267 269 270 271 273 276 279 281 282 282 282 283 284 285 286 286 287 287 287 289 290 291 291 292 292 293 294 296 296 297 297 297 296 295 296 296 296 296 294 294 293 292 293 293 293 294 294 293 292 293 293 293 292 292 290 290 289 290 289 289 288 288 288 288 289 288 288 289 288 288 288 288 289 288 288 285 283
260 260 261 262 263 264 266 267 269 270 272 273 275 279 281 282 282 283 283 284 285 285 285 286 287 287 288 289 290 290 291 291 291 292 293 294 296 297 297 296 296 296 295 295 296 296 295 294 293 293 293 293 293 293 293 292 292 292 292 292 291 291 290 290 289 289 288 288 288 288 288 288 289 289 289 289 289 288 287 286 286 286 286 284 281
259 260 261 262 264 266 267 269 272 274 275 277 279 281 282 283 283 284 285 285 285 285 286 286 287 288 288 289 289 290 290 291 291 291 291 292 294 295 296 295 295 295 295 295 294 295 295 294 293 292 292 292 293 292 291 291 291 291 291 291 290 291 290 290 289 289 288 288 288 288 288 288 289 289 289 288 288 287 286 286 285 283 283 283 282
259 260 261 262 265 267 267 268 270 273 276 279 281 283 284 283 284 284 284 284 285 285 286 286 287 288 288 289 289 290 290 290 291 291 291 292 293 293 295 294 293 293 294 294 293 294 293 293 293 292 292 292 292 292 292 291 290 290 290 290 291 291 290 290 290 289 289 289 288 289 289 289 289 288 288 288 287 287 287 286 285 285 284 284 283
259 260 261 264 265 266 267 269 270 270 272 275 279 282 284 285 285 284 285 285 285 285 286 287 287 288 288 289 289 289 289 290 290 291 291 292 292 293 293 293 294 294 295 294 293 293 293 292 292 291 291 291 291 291 292 291 291 290 290 291 291 291 290 290 290 290 290 290 290 290 289 289 288 288 287 287 287 286 286 286 285 284 284 284 282
259 260 263 264 264 266 266 267 268 268 270 272 275 279 282 284 285 286 286 287 287 287 287 287 288 288 289 289 289 289 289 289 290 291 291 292 291 293 293 293 294 294 293 293 290 291 291 292 291 291 290 290 290 291 291 291 291 290 290 291 291 291 291 290 290 290 290 290 289 289 289 289 288 288 287 287 286 286 286 286 285 284 284 284 283
259 261 262 263 264 265 265 266 266 267 268 269 271 274 280 284 286 285 286 287 288 289 289 288 289 289 289 289 290 290 290 290 291 292 292 292 293 293 293 294 294 293 293 293 292 292 291 291 291 291 290 290 290 290 290 291 290 290 290 290 291 291 291 290 290 290 290 290 290 289 289 288 288 287 287 286 286 286 286 286 285 285 283 283 283
259 260 261 262 264 264 264 264 265 266 267 268 269 271 275 280 284 287 288 287 288 288 289 289 290 290 289 289 289 291 292 291 292 292 292 292 293 293 293 294 294 294 293 291 292 291 291 291 291 291 290 291 290 290 290 290 290 290 290 290 291 290 290 290 290 290 290 290 290 290 289 288 287 287 286 286 286 285 285 285 285 284 284 283 283
259 260 261 262 263 264 264 264 264 265 266 267 268 270 272 275 278 282 286 289 288 289 289 289 290 290 291 290 289 289 290 291 292 292 291 292 292 292 293 294 294 293 293 294 292 291 291 291 291 290 290 290 290 290 290 291 291 290 290 290 290 290 290 290 290 290 290 290 290 289 288 288 288 286 287 286 285 284 284 284 284 284 284 284 284
259 260 261 262 263 263 263 263 263 264 264 265 266 268 270 271 272 275 279 283 288 288 288 289 288 289 291 291 291 291 290 291 291 291 291 291 292 292 293 293 294 294 293 292 292 291 291 291 291 291 290 290 291 291 290 291 291 291 291 290 290 290 290 290 289 290 290 290 290 289 289 288 288 287 286 286 285 283 283 283 284 283 283 283 283
259 260 261 262 262 262 262 262 262 263 264 264 265 266 267 268 269 269 271 273 275 276 278 278 279 281 285 290 291 291 291 291 291 291 291 291 291 292 292 292 294 294 293 292 292 291 291 291 291 291 291 291 291 291 290 291 291 291 291 291 291 291 291 291 290 289 290 290 290 290 289 288 288 287 286 286 285 284 283 283 283 282 282 283 283
259 261 262 263 262 261 261 262 262 262 263 263 263 264 264 265 266 266 266 267 267 268 268 270 274 277 278 279 283 289 290 290 291 291 291 291 291 292 292 290 291 291 291 292 292 292 291 291 291 291 291 290 291 291 290 290 291 290 290 290 290 291 290 290 290 289 290 290 289 289 289 288 287 287 286 286 284 283 283 283 283 283 283 282 283
259 260 261 262 261 261 261 261 261 262 262 261 262 263 263 263 263 263 263 264 264 265 266 266 268 272 274 275 278 280 282 281 281 281 283 288 291 292 289 289 289 290 290 291 291 292 291 291 292 291 291 291 291 291 291 290 290 291 291 290 290 290 289 289 289 289 289 290 289 289 288 288 287 287 287 286 285 284 283 283 283 282 283 283 283
258 259 260 261 261 261 260 261 261 261 262 261 261 261 261 261 262 261 261 261 262 263 264 264 265 265 268 268 270 274 277 278 277 276 277 277 278 283 287 289 289 289 289 290 290 290 290 290 291 291 291 290 290 290 290 290 290 290 290 290 290 290 289 289 289 289 289 289 289 288 288 288 287 287 287 286 285 284 284 284 283 282 282 282 282
258 258 259 261 261 260 260 260 260 261 260 260 260 260 260 259 259 259 259 259 260 259 260 263 264 262 261 262 267 267 268 269 271 269 269 269 266 267 269 273 279 285 288 289 290 289 289 289 289 290 289 290 289 289 289 289 289 289 289 289 289 289 289 289 288 288 288 289 289 288 288 288 287 287 286 286 285 284 283 283 283 282 281 281 281
257 259 260 261 262 260 259 259 259 259 259 259 258 258 258 258 258 258 258 258 257 257 258 260 261 261 261 262 261 263 262 260 260 260 261 261 262 262 263 265 267 269 271 274 280 285 287 287 287 288 288 288 288 289 289 289 289 289 289 289 289 289 288 288 288 288 288 288 288 288 287 287 287 286 286 286 285 284 283 283 283 282 281 281 281
256 257 258 260 259 259 259 259 259 258 258 258 257 258 257 257 257 257 257 256 256 256 256 256 258 261 262 262 260 259 258 257 257 258 258 259 259 260 261 262 263 264 265 267 269 270 273 274 278 282 285 287 287 287 288 288 288 288 288 288 288 288 288 288 288 287 287 287 287 287 287 286 286 286 285 285 285 285 283 282 282 282 282 281 281
255 256 257 259 258 258 258 258 258 257 257 257 257 257 257 257 257 257 256 256 256 256 256 256 256 258 262 263 266 262 257 256 256 257 257 257 258 258 259 260 261 262 263 264 265 266 267 268 268 269 271 273 278 285 286 287 288 288 288 288 288 287 287 287 287 287 287 287 287 286 286 286 286 285 284 284 285 284 283 283 282 282 282 281 281
255 255 255 256 256 256 256 256 257 257 257 257 256 256 256 256 256 256 256 255 255 255 255 255 255 256 261 266 264 263 257 256 256 256 256 256 257 257 258 260 260 260 261 262 263 265 265 266 266 266 267 267 268 270 275 281 284 286 286 286 286 286 286 286 286 286 286 286 286 286 286 285 285 284 284 284 283 283 283 282 282 281 281 280 280
255 255 255 255 255 255 255 255 256 256 256 255 256 256 256 256 255 255 255 255 255 255 254 254 255 255 256 262 261 261 255 255 256 255 255 255 256 257 257 257 259 260 261 262 263 264 265 265 265 265 266 266 267 267 268 268 272 280 284 285 285 285 285 285 285 285 285 285 285 284 284 283 283 282 282 281 282 281 281 280 280 280 279 279 278
254 254 255 254 254 254 255 255 255 255 255 255 255 255 255 255 255 255 254 254 254 254 254 254 254 254 254 255 256 255 254 254 254 254 254 255 255 255 256 256 257 258 259 260 261 262 263 264 264 265 266 266 267 267 267 267 268 269 272 277 278 278 280 281 283 284 284 283 282 281 280 280 280 280 278 279 279 279 279 278 278 278 278 278 277
253 254 253 253 253 253 253 254 254 254 254 254 254 254 254 254 254 254 254 253 254 254 254 254 254 254 253 253 254 254 254 254 254 254 254 254 254 254 255 255 256 256 257 258 259 260 261 262 263 263 264 265 266 267 267 267 267 268 268 268 269 270 271 272 274 278 282 281 280 279 279 278 278 278 278 278 278 278 277 277 277 276 276 276 276
253 253 253 253 252 253 252 252 253 253 253 253 253 253 253 253 253 253 253 253 253 253 253 253 253 253 253 253 253 253 253 253 253 253 254 254 254 254 255 255 255 255 255 256 257 258 259 260 261 262 262 264 265 266 266 267 267 267 267 267 268 269 270 271 274 275 276 278 278 278 278 277 277 277 276 277 277 277 277 277 276 276 276 276 276
252 252 252 252 252 252 252 252 252 252 252 252 253 252 252 252 252 252 252 252 252 252 252 252 252 252 253 253 252 252 253 253 253 253 253 253 253 254 254 255 255 255 255 256 256 256 258 260 261 261 261 262 265 265 266 266 266 267 267 268 268 268 269 271 271 272 273 274 274 274 274 274 273 273 273 274 274 274 275 275 275 275 275 274 274
252 252 252 252 252 251 251 251 251 251 251 251 252 252 252 252 251 251 251 252 252 251 251 252 252 252 252 252 252 252 252 252 252 252 252 252 253 253 254 254 254 254 255 255 256 257 258 258 258 260 261 261 262 265 265 266 266 266 267 268 268 268 269 269 270 271 272 272 273 273 273 272 272 272 272 272 272 272 272 272 272 272 272 272 272
252 252 251 251 251 251 251 250 250 250 250 251 251 251 251 251 251 251 251 251 251 251 251 251 251 251 251 252 252 252 252 252 252 252 252 252 252 253 253 253 254 254 254 254 254 255 256 257 258 259 260 261 261 263 265 266 266 266 267 267 268 269 268 268 269 270 270 271 271 271 271 271 270 270 270 270 270 270 270 270 270 270 270 270 271
251 251 251 250 250 250 251 251 250 250 250 250 250 250 251 251 250 251 251 250 250 250 250 250 250 250 251 251 251 251 251 251 251 251 251 251 251 252 252 252 253 253 253 253 254 254 255 255 256 258 259 260 261 261 262 265 266 266 266 267 269 269 267 267 267 268 268 269 269 269 269 269 269 269 269 269 269 269 269 269 269 269 269 269 269
251 251 251 250 250 250 250 250 249 250 249 249 249 249 249 249 250 250 250 250 249 249 250 250 250 250 250 250 251 250 250 250 250 250 250 250 250 251 251 251 252 252 253 253 253 254 254 254 255 255 257 258 260 260 261 263 266 266 267 267 267 267 267 266 265 266 267 267 267 268 267 267 267 267 267 267 268 268 268 268 268 268 268 268 268
Wind_Speed
21 22 22 20 21 21 21 20 22 20 21 23 20 14 15 15 11 9 8 6 5 6 6 6 7 8 10 12 13 13 17 16 14 15 15 16 16 17 19 20 21 18 18 18 16 16 16 17 16 14 12 12 11 10 10 11 10 10 11 11 11 11 11 9 10 6 3 4 9 10 11 11 8 8 10 8 7 5 7 8 9 7 7 7 7
21 22 21 20 21 22 21 20 19 18 19 20 22 23 15 13 14 13 9 7 6 6 6 6 6 7 9 12 13 13 14 17 17 15 16 17 17 16 16 20 21 20 19 19 18 16 16 18 16 14 14 15 13 13 12 11 10 11 11 11 11 11 10 9 8 9 8 5 7 7 9 10 9 7 12 11 7 6 8 7 5 6 6 6 6
21 20 21 21 22 21 21 20 18 18 18 17 19 20 19 16 13 13 13 8 7 6 6 6 6 6 9 11 12 12 13 15 15 18 18 19 19 17 17 19 20 20 20 20 21 19 18 18 18 17 14 14 15 15 13 13 11 13 13 11 12 11 11 11 8 8 11 8 8 10 10 9 9 11 8 8 8 9 9 7 6 6 5 6 6
20 20 21 22 23 21 20 19 20 18 17 16 18 19 20 19 15 14 12 11 7 5 5 5 6 7 8 11 12 11 12 14 15 17 20 20 19 19 19 19 19 20 21 20 19 19 21 20 18 19 17 17 16 15 15 14 14 13 13 11 12 12 11 10 9 8 8 11 8 10 9 11 6 8 8 8 10 8 7 6 6 7 6 6 7
19 20 21 24 22 21 21 20 19 19 18 15 17 17 17 17 19 19 12 11 8 6 5 5 6 7 8 10 12 12 11 12 16 17 17 18 20 20 19 20 20 21 21 21 21 21 21 21 20 20 18 17 17 16 15 17 14 13 13 12 11 10 9 10 9 10 10 11 9 5 6 4 6 10 11 13 9 7 5 7 7 7 6 5 5
19 20 20 22 22 23 21 19 19 19 19 17 17 16 15 16 15 18 19 14 11 6 5 5 5 8 8 10 11 13 12 12 16 18 18 18 19 19 19 19 20 20 20 20 22 21 21 22 21 20 20 20 19 17 16 17 15 14 14 13 11 11 11 10 10 9 10 10 11 10 7 9 9 8 10 12 13 10 7 5 5 5 8 7 5
20 19 20 21 22 22 22 21 19 19 18 18 16 15 16 17 17 17 18 16 11 7 6 7 6 8 8 9 11 12 13 12 15 17 18 19 19 20 19 20 20 19 20 21 21 22 21 20 21 22 22 21 20 19 18 17 15 16 15 14 12 11 10 9 9 11 11 11 9 11 10 6 9 11 9 8 9 12 15 10 6 4 5 8 8
22 22 20 20 20 21 21 20 20 19 18 18 17 17 16 16 17 15 17 17 11 8 8 8 8 7 8 8 10 11 12 13 14 17 18 18 18 19 19 20 20 19 20 21 22 21 20 20 21 21 21 20 20 19 18 17 15 13 14 14 14 12 11 10 10 11 11 11 12 11 9 12 6 5 9 9 8 5 8 13 15 12 9 6 8
23 21 20 20 20 20 20 19 18 20 20 20 19 19 19 17 17 16 16 17 13 11 9 9 9 9 8 8 10 10 12 13 13 15 17 19 19 20 20 21 20 19 18 19 18 20 20 19 19 19 20 21 24 21 20 19 16 15 13 13 12 13 11 10 11 11 11 11 10 10 10 10 11 13 12 13 16 18 14 8 8 8 8 7 5
21 22 23 22 21 21 21 21 20 20 20 20 20 20 18 17 17 16 16 17 16 14 12 10 10 10 10 10 9 11 12 12 15 22 22 18 19 18 18 19 20 19 18 18 18 19 19 18 18 23 23 23 22 23 23 23 23 19 17 15 15 14 14 13 12 12 13 13 13 13 13 13 13 15 17 16 12 9 11 11 12 11 9 6 4
23 23 23 23 22 22 21 21 21 22 20 20 19 20 20 17 16 17 16 16 18 18 17 15 12 10 10 10 11 11 12 13 20 21 25 26 21 18 18 18 19 19 19 19 18 18 18 19 16 19 21 21 21 23 22 23 22 20 20 21 21 19 17 16 15 15 15 14 13 14 15 17 17 17 17 16 13 16 15 14 13 13 13 14 13
24 23 22 23 22 21 20 21 22 21 21 20 19 18 17 16 16 16 16 16 17 16 17 16 14 12 11 10 11 12 12 17 23 23 26 27 24 19 17 16 17 18 18 19 18 18 18 17 15 13 14 18 18 18 20 22 22 21 21 19 21 23 22 19 19 16 16 15 15 16 15 16 17 16 13 12 13 12 11 10 13 16 15 13 11
22 23 23 23 22 21 20 21 21 21 21 20 18 17 17 17 17 17 17 16 16 17 18 16 15 13 12 12 12 12 13 18 24 24 26 28 28 23 15 17 17 18 18 18 18 18 17 16 15 14 14 22 19 18 16 16 20 22 19 19 19 20 21 21 19 17 16 17 18 17 18 16 17 16 17 20 19 19 15 12 11 12 13 14 13
23 23 22 21 21 21 21 20 21 21 20 19 19 18 18 18 17 16 16 16 16 17 18 17 15 14 13 13 12 12 13 18 25 25 27 29 28 24 16 18 18 19 19 18 16 16 18 18 17 15 14 17 17 18 16 15 11 11 12 11 12 16 18 20 21 19 17 13 14 17 16 15 18 19 19 19 21 19 18 17 15 14 15 18 13
21 21 22 21 21 20 21 20 21 20 19 20 20 19 17 16 16 15 15 16 16 16 16 16 14 14 14 12 12 12 14 21 26 26 28 30 29 25 17 17 15 16 17 18 17 16 17 17 18 16 16 16 15 19 18 15 15 13 12 12 11 13 14 15 15 15 13 10 11 12 15 15 16 17 16 13 18 20 23 23 22 19 11 7 8
22 20 21 20 20 20 20 20 20 20 19 18 19 21 18 16 15 15 15 16 15 15 15 14 14 14 13 12 12 14 14 22 26 26 29 30 31 21 16 17 16 15 16 16 17 16 16 16 16 16 16 16 19 24 20 16 16 18 17 14 11 11 13 15 17 17 16 16 14 15 14 14 14 11 13 12 10 5 9 10 11 10 11 10 8
22 22 20 21 21 20 20 20 20 20 20 20 19 20 20 16 15 14 15 16 16 15 14 13 12 12 13 12 13 13 14 20 25 26 29 32 27 18 15 14 15 15 15 16 16 15 15 17 16 15 16 16 22 26 26 22 16 18 17 16 14 13 12 11 16 19 19 20 19 19 17 16 14 15 20 20 14 10 9 10 10 11 11 11 8
21 21 21 21 21 21 20 20 20 20 19 20 20 19 18 17 15 14 15 15 16 14 12 12 11 11 12 13 12 13 14 19 24 26 30 32 27 19 15 14 14 14 13 13 13 12 15 22 19 15 16 17 23 27 27 23 19 21 19 18 16 15 14 11 10 11 15 17 16 16 17 17 16 21 23 23 21 15 15 16 16 14 14 14 15
21 22 23 22 22 21 20 20 20 20 20 20 19 19 18 17 15 14 14 15 16 13 11 11 10 9 10 11 15 17 15 16 22 26 31 31 26 16 15 13 14 14 13 12 12 12 13 16 22 20 18 19 27 27 28 24 18 19 20 19 19 19 16 14 14 12 9 9 8 7 7 14 13 14 18 27 25 20 16 15 13 14 16 15 12
22 22 23 23 22 20 19 20 21 20 20 20 18 18 17 17 15 13 12 13 14 14 11 10 10 9 8 9 12 14 14 13 16 27 28 31 32 19 14 15 15 15 14 14 12 10 11 12 17 22 21 21 25 28 29 29 21 18 17 18 20 21 14 14 13 14 15 15 12 11 12 11 11 10 11 16 17 17 15 12 15 15 12 9 10
23 23 22 21 22 22 20 19 21 21 20 18 18 17 16 16 13 12 13 14 16 12 7 6 7 8 8 10 11 12 12 12 14 26 29 30 30 25 15 16 15 15 14 13 13 13 12 12 11 18 23 24 26 28 28 29 24 19 20 19 19 18 18 16 19 20 14 14 13 11 9 9 11 11 12 14 15 14 14 12 13 14 16 15 13
22 22 23 23 22 22 21 20 19 17 18 16 16 17 17 16 13 12 12 13 10 6 6 6 6 8 9 10 10 11 11 15 11 22 29 30 30 30 17 15 16 15 14 13 13 12 13 13 11 17 23 22 23 27 29 28 27 14 17 19 22 22 20 16 14 15 14 13 11 10 9 10 11 11 12 13 14 16 15 13 14 15 14 14 17
22 22 22 23 21 21 20 20 18 14 15 15 16 18 16 12 12 12 13 12 10 8 7 6 6 8 9 9 8 9 9 9 15 15 25 29 30 28 24 17 20 15 15 14 14 13 12 13 14 23 24 23 24 25 26 28 24 17 23 22 21 24 23 14 14 14 13 14 13 13 13 13 13 12 13 13 13 14 15 14 14 15 14 10 6
23 22 20 20 20 18 18 18 16 13 14 15 16 17 14 11 11 11 11 10 9 7 6 5 6 7 8 8 6 6 7 6 11 17 19 28 28 28 23 21 22 15 14 13 12 12 12 12 14 25 25 25 25 25 25 25 19 24 24 23 18 17 10 10 12 15 15 15 16 16 15 13 13 13 14 14 14 16 17 17 15 11 10 3 1
24 22 20 18 18 17 16 14 13 13 13 13 13 11 11 11 11 11 10 9 8 7 6 5 6 7 7 7 5 5 5 5 5 12 20 23 27 27 23 23 23 21 14 10 13 12 16 20 23 25 24 24 24 24 21 23 24 21 23 24 24 12 12 12 12 12 13 15 15 15 14 15 16 16 14 14 14 12 9 5 5 6 6 6 4
23 23 21 18 17 16 17 17 16 14 13 10 10 11 10 10 9 9 7 8 7 7 6 5 6 6 6 6 5 4 5 4 4 6 10 16 18 24 24 22 23 21 17 12 16 19 20 22 27 28 27 24 18 14 13 17 25 23 23 20 13 13 15 14 12 14 15 14 13 13 13 10 10 11 12 12 12 13 13 12 11 8 9 9 7
22 21 19 17 17 17 18 16 17 17 14 12 9 9 8 8 8 9 9 9 8 7 7 6 6 5 5 5 4 3 4 4 5 5 5 7 8 14 18 16 20 19 13 11 14 13 18 20 17 20 17 24 24 22 21 20 18 16 13 13 13 14 15 14 16 16 14 13 13 12 10 11 9 8 11 12 11 10 12 14 14 13 11 9 10
20 20 19 16 16 17 17 23 21 15 16 15 14 11 9 8 9 9 9 8 7 7 7 6 6 5 4 4 3 3 4 4 5 6 6 7 7 7 9 9 10 10 11 10 10 11 12 13 15 12 12 13 14 11 11 11 14 15 15 15 14 13 14 18 16 13 14 15 14 12 11 11 12 12 9 9 12 13 13 13 14 13 12 12 10
21 19 18 16 15 16 16 17 16 16 16 16 14 13 12 10 10 10 9 8 8 8 7 6 5 5 5 4 4 5 4 4 5 5 5 9 9 8 8 8 8 7 10 13 8 8 9 10 10 11 11 13 12 12 12 12 12 13 16 15 14 13 12 11 14 14 12 9 10 11 11 10 10 10 12 13 13 13 12 12 11 13 11 12 15
18 17 16 15 15 17 16 16 17 16 16 15 16 16 19 21 14 11 10 12 16 16 12 7 5 4 4 4 4 4 4 3 8 10 10 11 13 16 14 14 12 10 14 18 14 10 11 11 11 12 11 10 11 12 12 12 12 12 12 15 14 13 13 14 13 12 11 12 12 12 13 12 12 12 13 14 12 12 14 17 14 14 15 15 15
16 15 16 15 18 18 16 16 16 16 15 15 14 14 14 15 19 18 17 17 15 14 13 15 13 7 3 4 4 5 5 11 15 15 16 15 15 15 16 17 19 19 22 16 12 12 11 11 11 12 13 13 13 13 13 13 13 12 13 13 13 14 14 13 13 12 12 12 12 12 12 13 14 14 14 14 14 13 12 13 13 14 16 16 15
15 15 15 15 18 18 15 15 16 15 15 14 14 14 13 14 15 18 21 13 15 15 13 11 12 10 9 7 4 3 5 11 13 14 15 17 18 16 17 20 20 20 21 21 13 11 12 12 12 12 11 12 12 12 12 13 13 13 12 13 14 14 15 15 14 13 13 13 13 13 13 14 14 14 15 14 13 14 15 15 14 15 14 13 14
16 15 14 17 17 18 16 15 15 15 15 16 15 14 13 13 13 14 16 22 15 9 8 9 10 9 10 8 9 8 6 8 12 12 14 15 17 17 17 18 21 24 24 15 12 12 11 12 13 12 13 13 12 12 12 13 13 13 13 14 15 15 14 14 13 13 13 15 14 14 14 15 14 15 15 16 15 15 15 14 14 14 15 15 15
16 13 15 18 17 16 16 15 15 15 15 15 14 13 13 13 13 13 12 13 14 17 22 25 28 29 19 8 11 10 9 13 11 12 12 13 14 15 18 15 19 24 22 15 13 13 12 12 12 12 12 12 11 11 12 12 12 13 13 14 13 13 14 13 13 15 14 15 15 14 14 13 13 14 14 13 14 14 15 15 15 15 15 16 16
14 16 25 22 15 15 15 15 15 15 16 16 14 15 14 14 13 13 13 12 11 12 11 14 20 28 19 18 29 8 11 10 12 12 14 13 13 14 13 8 11 12 14 12 12 11 13 13 13 12 11 11 11 12 12 11 11 11 12 11 10 10 11 13 15 16 15 14 14 13 13 14 14 13 14 15 15 15 17 17 16 18 18 16 14
15 13 15 18 17 15 15 15 14 14 15 15 14 13 14 13 14 12 12 12 13 12 12 12 10 14 30 32 31 32 30 30 29 29 23 11 5 11 7 6 8 10 10 8 7 8 8 9 9 9 9 9 9 9 10 11 11 11 11 10 11 10 11 12 13 13 13 14 14 15 14 13 13 14 14 14 18 19 18 18 17 17 17 16 15
14 13 14 16 15 14 14 14 14 15 15 15 14 14 14 14 13 13 13 14 14 11 12 14 15 17 21 19 25 23 26 27 28 30 27 27 27 11 3 2 5 6 6 7 6 6 6 6 7 7 8 8 8 8 8 9 9 9 9 10 11 12 12 13 13 13 14 13 13 14 15 15 16 16 16 17 17 16 15 15 15 17 17 18 16
14 14 14 17 15 15 14 14 16 19 15 14 13 13 14 14 14 13 14 14 15 14 14 15 16 16 17 15 21 13 11 22 32 26 24 25 18 12 10 11 10 7 2 3 5 5 4 3 4 6 6 7 7 7 8 9 8 9 9 10 11 11 14 14 15 15 15 14 14 14 15 14 14 14 15 16 15 15 15 15 14 15 16 16 15
13 19 25 28 20 15 12 14 15 15 15 15 14 15 15 14 15 15 15 14 14 15 14 12 15 17 17 15 14 15 18 17 14 12 12 11 11 10 10 11 10 10 10 10 10 7 4 3 2 3 4 4 5 6 7 8 8 9 9 9 10 9 12 11 12 12 12 12 12 11 12 12 11 12 13 14 14 14 15 16 17 16 17 17 17
13 13 17 27 16 17 14 13 13 14 14 15 14 14 14 15 15 15 14 15 17 15 13 14 13 17 18 18 17 14 17 13 11 10 12 13 12 12 12 12 14 12 11 11 10 9 9 9 9 8 5 3 3 4 4 5 6 7 7 8 9 10 11 11 12 12 13 12 12 11 12 13 13 13 13 13 14 15 15 16 16 16 16 16 16
11 12 14 16 19 14 13 13 13 13 12 13 13 14 14 15 14 14 13 15 14 14 15 14 13 10 19 24 32 25 14 13 12 13 12 11 11 12 11 11 12 12 11 11 10 9 9 8 9 8 8 8 8 5 2 3 5 6 7 7 7 8 8 8 8 9 10 11 11 11 11 11 11 12 14 14 13 11 11 12 13 13 13 13 13
12 12 13 13 15 13 12 13 13 13 12 13 13 13 13 13 13 13 14 13 14 13 13 12 13 10 20 38 32 33 18 13 13 12 12 12 11 10 12 14 12 11 10 8 8 9 10 9 10 9 10 10 9 8 8 7 3 2 5 6 7 8 8 8 8 8 8 9 9 9 9 10 11 11 12 10 10 10 11 12 12 12 11 12 11
11 11 11 13 13 13 13 12 12 12 13 13 13 12 13 13 13 13 13 13 13 13 12 13 12 12 15 27 28 29 15 14 14 14 12 12 12 11 12 11 11 10 11 11 12 10 9 9 10 10 8 8 9 9 8 7 7 6 3 2 4 5 6 6 6 7 7 7 7 7 6 7 7 7 7 7 8 7 7 9 11 11 12 12 11
10 10 10 11 11 11 12 11 12 12 12 13 13 13 14 12 12 13 12 12 13 12 12 11 11 12 12 15 17 17 14 14 12 13 14 13 12 11 12 11 10 9 9 12 11 10 9 10 10 11 12 10 12 11 9 9 9 9 8 7 6 6 4 2 3 6 6 6 6 6 6 6 5 5 5 5 6 7 7 7 8 9 10 10 11
10 10 11 10 11 11 12 11 12 12 13 12 11 12 14 13 13 12 12 12 13 12 12 11 12 12 13 13 13 14 13 12 13 13 12 11 9 9 10 10 10 10 11 11 11 10 11 12 10 11 11 13 13 12 12 11 9 8 8 8 7 7 7 6 5 3 4 6 6 7 7 6 7 6 6 6 6 6 5 5 5 5 7 8 10
10 10 11 10 11 11 11 11 12 11 11 12 12 12 12 12 12 12 13 13 13 13 12 13 12 13 13 13 13 13 13 12 12 12 12 11 10 10 10 9 9 9 9 9 9 10 9 10 11 11 9 10 13 13 13 12 13 10 7 7 7 7 6 6 7 7 7 5 6 6 6 6 6 5 6 6 6 7 7 7 7 7 7 6 6
10 9 9 9 10 10 10 11 10 12 11 12 11 11 11 11 11 12 12 14 13 12 12 12 12 12 12 13 13 12 12 13 11 11 12 12 12 11 10 10 10 11 13 15 13 10 12 14 13 12 10 9 12 14 13 13 12 12 10 9 9 8 8 8 9 9 8 8 7 7 7 7 7 6 7 7 6 6 6 6 6 8 7 6 6
9 9 9 10 9 9 10 10 10 12 11 11 10 11 10 10 10 11 11 11 12 12 11 11 11 11 11 11 11 11 10 10 10 11 10 10 10 10 11 12 12 11 10 12 14 13 13 13 11 12 14 11 12 12 13 13 13 13 12 12 13 14 16 14 10 10 8 8 8 9 9 9 8 8 8 8 7 7 8 6 6 6 6 7 6
8 8 9 10 9 9 9 10 10 10 10 9 10 11 11 10 10 9 9 9 10 10 10 10 10 10 10 10 10 9 9 10 10 10 10 10 10 10 10 10 11 11 10 9 10 14 13 13 14 13 13 13 13 13 12 13 14 13 14 13 18 27 25 23 13 12 13 10 9 9 10 10 10 9 9 9 9 8 8 7 7 7 7 7 7
7 8 8 8 8 9 9 8 8 8 8 9 9 9 9 9 10 9 9 9 9 10 10 9 9 9 10 10 11 11 10 10 10 9 9 9 9 9 10 10 10 10 9 10 9 9 10 12 14 13 13 13 13 14 12 12 13 14 13 17 27 28 25 25 25 21 13 9 11 9 10 10 10 9 9 9 10 11 10 8 7 6 7 7 7
8 7 7 7 7 7 8 8 8 8 8 9 9 9 9 9 9 9 9 10 10 10 9 9 9 9 8 8 8 9 10 10 9 9 9 9 9 9 9 10 10 10 9 10 9 9 9 8 8 10 12 12 11 12 11 12 13 15 21 27 28 28 27 23 17 21 22 14 10 11 11 11 11 11 10 9 10 11 10 10 8 8 7 7 7
Wind_Direction
308 306 305 303 304 305 307 305 298 295 300 302 294 272 269 266 262 250 245 220 197 215 247 263 274 281 286 284 281 271 245 213 192 187 189 190 188 187 184 181 181 182 178 180 177 178 177 176 178 178 172 177 184 177 175 178 172 177 180 182 185 187 178 179 175 141 81 124 140 153 154 146 150 154 137 144 140 121 115 130 140 139 133 135 137
307 306 303 302 303 305 306 305 304 308 307 310 310 299 281 270 272 270 240 230 202 202 230 257 263 275 280 282 283 275 259 225 192 185 189 190 187 189 184 182 182 180 179 180 177 179 181 180 180 180 179 181 183 187 181 178 175 174 182 183 187 186 182 169 171 151 152 137 131 136 149 159 143 163 151 150 142 127 131 140 136 130 134 131 131
308 305 302 301 301 303 304 303 305 307 308 305 302 305 303 289 275 266 264 240 218 211 213 242 264 268 274 278 278 278 269 244 202 186 188 190 188 185 184 184 183 181 182 183 180 177 181 185 185 181 178 182 187 190 186 185 177 178 183 184 184 183 181 178 158 158 153 160 153 152 161 165 160 163 160 146 136 134 133 139 134 126 126 133 132
306 304 302 300 299 298 299 300 301 303 304 305 304 309 314 308 287 269 266 258 238 224 197 227 258 264 274 279 278 272 270 250 219 193 186 187 188 186 184 185 185 185 184 183 182 179 181 186 187 182 181 184 187 189 191 186 182 182 183 183 180 181 179 175 166 149 156 148 172 165 170 159 149 146 139 134 135 134 133 119 115 124 127 128 135
306 303 301 299 299 298 297 297 296 298 299 300 303 308 307 308 313 303 279 262 240 234 221 206 250 262 271 280 284 281 268 260 232 202 188 187 186 187 186 185 186 186 186 183 182 183 184 185 185 183 182 184 188 190 190 188 185 182 182 178 179 175 169 175 160 150 151 154 150 155 153 142 139 147 150 142 138 123 116 130 135 130 121 122 123
303 303 302 300 299 297 296 295 295 297 298 300 300 298 298 299 299 302 299 277 257 233 232 235 243 262 268 276 280 281 276 267 245 212 190 186 187 186 186 185 186 186 186 185 185 185 186 186 182 182 184 186 189 189 187 186 182 183 180 177 176 169 169 172 155 156 150 151 150 148 166 151 147 155 162 150 144 136 124 110 103 118 130 129 135
305 302 300 298 297 296 296 295 296 295 295 296 296 296 296 296 296 295 296 294 268 253 233 242 244 253 263 274 278 280 280 271 256 223 195 186 186 187 185 185 185 186 186 186 188 187 188 187 183 184 186 187 186 186 185 184 184 184 180 177 175 169 169 167 156 154 152 147 155 158 154 158 156 152 161 154 146 151 148 141 137 153 145 144 141
308 304 299 297 294 294 294 296 295 295 294 292 290 291 293 291 291 292 291 293 285 259 252 249 252 250 258 265 274 279 278 273 262 231 199 187 187 187 184 185 185 186 188 187 185 187 188 187 186 187 188 186 185 185 181 183 183 184 183 177 175 169 169 164 156 156 154 155 158 164 161 151 144 128 131 132 135 143 176 163 162 165 165 158 156
307 304 302 298 297 296 295 293 293 294 292 289 287 288 288 286 287 288 287 282 282 282 269 261 258 261 259 259 270 275 273 265 258 235 205 190 187 188 186 185 185 187 186 187 189 187 186 189 190 187 186 186 184 182 184 181 179 183 185 177 173 168 168 162 160 158 158 157 159 159 157 157 154 151 160 165 173 180 177 161 146 144 140 142 156
302 303 301 299 298 297 296 296 294 291 289 286 286 285 285 285 282 282 281 279 280 282 281 266 258 260 265 265 265 270 271 267 254 241 213 192 187 187 187 185 185 184 183 186 188 186 187 188 190 186 182 182 182 184 185 184 186 183 178 176 174 171 172 165 165 166 163 167 166 163 162 168 168 169 170 186 178 132 140 155 155 156 140 134 132
302 300 298 298 297 297 296 294 295 291 287 286 283 281 282 281 279 278 277 273 273 271 268 270 263 257 257 261 266 265 268 268 260 242 221 194 185 186 186 186 186 184 185 184 187 187 190 188 184 181 181 181 183 185 185 186 186 186 185 180 176 174 172 170 173 170 172 173 171 171 174 172 177 177 181 169 163 167 172 169 159 154 163 162 173
300 296 296 296 297 296 295 294 293 291 288 281 278 277 275 273 272 275 276 273 271 268 263 259 263 261 257 254 258 263 266 268 264 250 219 200 186 183 185 185 184 186 186 187 187 185 187 185 184 177 181 181 183 186 186 185 184 184 182 184 186 181 179 176 172 175 176 174 176 181 174 179 177 178 174 163 166 170 171 162 163 170 172 178 168
300 299 298 297 296 295 294 292 292 292 290 285 277 275 273 272 272 272 268 268 267 262 259 255 255 257 253 254 256 260 267 268 265 249 220 202 189 181 183 182 182 187 187 187 186 183 181 179 183 182 182 180 184 185 183 185 184 181 177 177 186 189 186 183 184 183 177 176 177 180 184 176 176 186 177 176 172 169 165 169 173 179 182 180 182
303 300 299 297 296 295 294 292 290 289 287 283 276 269 269 269 270 270 269 269 262 259 256 253 250 251 252 251 255 258 261 267 261 246 216 201 190 183 180 182 183 186 186 183 183 182 179 179 180 183 179 177 184 183 181 178 179 177 175 175 181 190 190 188 180 178 179 184 180 186 190 179 184 184 187 175 166 167 167 179 178 177 182 191 183
301 300 298 296 296 295 293 291 290 291 292 293 286 271 265 267 265 266 267 266 260 253 252 248 245 247 250 249 252 255 259 260 257 241 214 198 190 185 181 181 182 186 186 181 180 179 181 183 179 179 178 177 181 180 177 176 169 173 178 180 182 184 190 189 186 184 182 185 187 195 191 190 190 187 180 176 175 176 178 178 177 177 160 81 61
301 301 300 298 297 296 294 292 290 290 288 287 288 284 270 264 267 269 267 265 259 252 249 242 239 241 245 250 251 257 258 256 252 235 207 196 188 187 182 180 181 183 184 184 182 178 177 179 177 176 178 176 179 176 176 171 174 170 175 180 182 189 197 195 188 184 182 184 187 192 193 191 185 170 168 172 173 121 78 72 84 108 133 155 145
302 301 298 297 295 294 293 291 289 288 286 284 282 284 281 270 269 266 262 261 260 251 245 239 239 240 245 247 251 255 259 255 247 225 203 194 187 186 181 180 182 182 182 182 183 177 175 178 178 180 177 177 178 178 176 169 175 176 177 178 181 184 197 192 194 191 186 188 190 190 184 185 160 149 166 171 167 154 135 132 151 151 156 160 157
303 301 298 296 294 294 291 289 286 284 282 279 278 277 275 272 267 263 261 260 253 244 241 240 235 235 239 248 249 255 256 250 239 217 198 192 186 183 178 177 180 182 180 181 179 176 178 177 179 179 178 178 175 180 179 173 177 180 179 179 179 188 194 187 181 192 189 188 192 185 177 177 163 161 167 170 167 162 163 171 171 167 177 174 174
307 304 300 296 294 292 289 285 282 280 277 274 273 274 271 268 265 259 254 261 271 265 242 238 237 235 239 247 254 252 249 245 230 211 195 188 184 181 177 173 176 179 176 178 181 179 175 178 180 180 182 179 178 180 179 178 180 180 180 177 183 190 192 181 177 174 177 181 191 160 169 176 167 166 172 173 173 173 180 178 169 175 176 184 177
307 305 300 298 297 295 291 288 284 280 276 273 270 269 270 267 260 262 269 268 262 251 236 232 234 242 246 255 256 248 241 235 221 205 193 187 181 177 176 172 176 177 177 175 177 181 174 178 186 183 179 173 177 181 180 178 180 184 180 183 184 192 181 176 184 180 179 181 181 175 175 171 168 161 166 171 176 181 185 178 176 175 181 192 183
307 304 302 299 294 288 283 275 274 273 269 268 269 268 267 265 257 253 257 260 253 243 239 244 250 257 260 260 255 243 232 225 215 199 189 185 180 175 178 177 174 172 174 173 178 176 176 180 181 184 179 178 177 182 184 185 185 180 183 190 190 185 169 177 184 180 183 185 180 178 167 164 168 167 169 174 177 183 188 185 184 186 184 183 183
308 308 305 301 298 293 288 282 277 273 272 268 265 264 260 253 251 256 260 260 252 245 248 255 262 268 270 262 250 239 226 218 205 201 190 185 181 179 176 179 170 168 170 175 177 178 179 175 175 182 181 177 178 182 184 185 186 181 195 198 189 175 178 185 176 178 183 187 185 175 169 168 169 173 173 177 181 184 188 187 189 195 198 191 184
311 307 302 297 291 286 283 280 277 271 266 264 263 263 260 253 251 252 258 266 267 259 253 257 262 268 269 263 242 228 222 218 200 195 193 185 184 184 178 170 168 168 172 176 179 178 174 173 175 175 178 176 179 183 186 188 185 189 190 196 196 189 181 176 175 178 188 188 185 186 183 179 176 177 176 179 183 184 188 193 193 195 199 201 204
307 304 299 295 292 287 284 279 273 266 263 263 263 260 260 262 264 262 258 260 264 258 254 257 260 265 267 266 239 219 218 204 204 194 192 187 185 184 177 169 171 176 175 175 174 169 166 172 173 175 178 177 177 181 187 187 190 192 186 185 179 193 185 187 183 185 186 187 189 189 188 187 181 178 182 181 179 186 189 193 194 189 183 156 98
312 307 303 297 294 287 281 279 279 271 262 258 262 267 264 260 261 257 255 253 252 254 257 255 258 264 266 260 239 213 205 202 194 200 191 188 185 183 177 172 178 173 172 169 168 171 172 168 166 171 176 178 178 179 183 188 194 195 190 182 181 176 179 195 192 184 188 194 195 192 189 186 186 185 180 180 183 179 173 138 110 123 119 98 83
310 307 306 303 296 294 302 305 307 301 283 269 267 266 260 261 262 266 264 260 256 257 256 252 252 255 261 251 240 209 196 187 186 189 198 187 185 183 179 175 176 174 171 165 171 167 164 164 168 174 176 177 174 175 181 189 193 189 192 186 182 183 185 185 186 187 196 194 190 194 192 183 187 184 180 175 168 175 167 162 159 155 153 150 129
310 309 304 302 312 322 324 322 323 321 317 308 292 285 262 247 251 255 257 256 256 255 255 251 251 249 247 241 233 210 185 184 177 178 177 179 185 185 182 179 173 170 169 161 164 159 162 165 172 172 176 177 178 182 184 182 185 186 186 182 189 195 194 190 188 189 192 187 192 193 186 183 180 168 181 181 176 168 171 172 175 176 167 164 158
315 307 304 313 322 327 327 325 325 324 324 323 316 300 282 265 256 254 253 253 253 252 245 247 246 241 237 223 209 194 193 183 180 175 179 177 178 173 183 177 170 173 168 165 162 159 157 161 161 163 166 173 180 181 183 175 177 180 186 190 199 202 199 195 193 194 190 190 189 182 179 177 182 187 171 175 181 176 174 177 178 174 173 161 163
314 309 317 325 329 332 330 327 327 325 321 320 317 313 301 285 276 265 254 247 244 247 240 244 238 231 230 218 198 195 180 196 199 168 168 176 169 171 173 175 169 174 160 136 122 122 135 148 153 165 172 177 183 185 184 181 185 184 185 190 194 195 194 193 195 198 193 181 183 181 182 173 176 174 181 184 185 179 177 177 178 170 175 181 187
319 324 327 330 333 336 335 332 329 326 322 320 320 315 310 304 281 259 266 253 244 239 237 239 233 220 230 237 210 197 199 186 143 150 157 171 180 178 175 168 168 156 144 143 142 147 159 164 172 175 178 180 183 184 183 186 187 186 189 194 193 194 196 196 198 191 181 186 185 181 183 180 181 179 183 188 185 181 181 179 176 175 174 188 192
324 325 329 335 338 338 336 333 330 326 322 322 319 316 318 319 320 304 263 255 252 246 239 236 240 239 221 246 257 271 180 149 159 170 169 175 184 183 173 167 166 161 152 147 153 159 165 174 178 181 181 182 186 187 185 186 189 189 190 188 192 195 197 196 194 185 184 186 184 184 183 182 182 179 182 187 185 184 181 187 180 182 189 189 191
327 325 328 335 338 341 338 334 332 328 327 326 324 323 325 330 324 329 329 279 249 249 242 238 238 244 246 248 254 269 195 174 175 172 173 176 176 180 180 172 165 161 164 156 160 173 176 178 180 183 183 186 190 185 185 187 189 189 187 185 192 194 192 197 190 184 185 186 185 183 182 186 186 182 183 183 182 185 185 185 188 190 194 191 195
322 324 332 341 341 342 342 339 336 334 334 333 332 335 338 339 339 337 343 351 347 337 338 350 342 290 245 255 247 205 188 196 184 178 180 181 179 178 184 180 170 165 160 166 171 176 183 184 184 186 186 192 189 185 185 189 188 188 190 191 194 194 194 192 175 182 187 190 188 189 186 188 188 187 187 180 178 185 190 191 193 191 190 192 197
326 330 341 346 345 346 344 342 339 341 339 337 336 343 343 346 351 351 353 354 2 12 14 9 10 13 356 307 237 213 191 189 186 183 182 184 184 185 181 183 178 169 168 178 182 183 181 189 190 190 193 193 188 184 189 190 190 190 193 198 198 191 190 178 176 188 192 191 193 193 188 188 185 182 185 185 187 183 186 193 192 192 196 197 194
333 340 347 352 351 349 342 341 344 347 347 344 343 349 349 353 358 5 7 8 8 11 4 360 4 11 18 22 14 354 189 185 188 187 183 182 184 185 172 165 173 178 184 188 186 184 185 189 193 193 191 189 187 187 189 189 188 191 193 194 193 188 185 185 189 192 191 189 192 192 187 186 186 188 185 183 181 185 193 197 197 196 195 193 191
338 347 346 351 355 351 345 345 346 353 354 346 348 353 354 1 5 5 4 11 16 11 8 9 359 357 23 24 18 30 42 45 44 37 29 17 193 160 151 175 181 188 192 195 195 192 189 193 193 192 188 189 184 186 186 185 189 189 188 184 184 184 185 190 193 192 192 192 192 189 185 187 187 188 188 190 191 192 192 193 196 198 197 195 191
341 347 351 351 353 350 351 349 350 357 358 354 352 358 2 7 9 9 14 16 14 9 17 8 4 8 14 15 5 9 27 45 46 42 36 34 29 24 351 217 193 184 194 197 196 191 187 191 188 183 180 180 179 180 178 181 184 185 184 184 183 185 187 190 192 192 191 194 193 191 190 191 190 189 187 192 196 198 195 192 192 193 197 197 190
339 347 351 354 353 354 359 359 355 357 360 357 357 0 5 8 11 14 18 15 15 13 11 19 27 28 15 357 351 352 359 29 34 29 26 28 23 16 13 14 9 358 319 231 200 183 186 153 170 180 177 176 172 169 171 179 178 179 182 183 184 191 189 190 190 191 194 195 195 192 194 195 193 193 195 199 196 193 193 191 189 191 197 197 193
342 347 355 360 360 2 358 2 360 1 2 3 4 6 10 11 12 16 17 16 16 16 9 13 28 30 21 359 359 341 27 29 23 25 21 22 28 19 23 20 19 20 15 10 5 16 30 56 98 115 133 147 160 168 171 176 175 180 181 182 186 187 187 188 191 194 196 199 197 195 194 195 191 192 197 201 200 195 194 191 192 189 189 192 197
343 343 351 358 359 358 1 1 3 7 7 7 7 9 11 16 17 16 14 20 22 18 15 14 16 30 25 23 14 12 48 38 38 21 26 23 26 21 26 29 29 27 16 12 14 13 15 11 7 17 29 61 114 145 156 158 170 180 181 186 186 190 190 193 192 190 193 195 196 196 195 194 192 192 197 202 203 198 195 194 195 194 193 194 196
343 345 350 354 357 353 356 2 6 7 3 9 5 10 15 14 17 18 21 23 21 20 21 18 12 5 31 33 36 38 52 45 34 33 28 27 22 26 20 26 28 24 16 17 13 12 13 14 12 14 14 10 5 20 66 145 160 173 179 183 186 189 188 193 196 198 198 195 194 193 195 193 191 191 199 204 203 197 195 198 197 195 193 194 190
345 351 350 347 353 356 355 2 359 360 5 10 11 11 9 10 15 23 25 21 23 22 21 20 15 355 24 32 35 38 46 40 31 29 29 22 21 22 30 34 26 14 10 3 7 12 12 21 23 23 23 15 10 4 4 12 8 173 174 181 183 183 182 184 187 187 188 192 196 196 191 190 190 196 202 202 196 195 193 194 195 194 191 186 186
344 353 353 353 354 358 358 352 353 359 9 13 12 10 12 17 18 20 22 23 22 20 19 17 11 7 16 25 30 34 41 34 32 31 29 23 21 22 28 21 15 10 20 22 23 16 25 27 32 28 20 22 18 14 13 2 350 360 24 151 160 169 173 171 177 178 178 182 187 183 177 178 182 187 188 188 191 194 199 195 194 190 189 183 179
346 347 352 356 353 350 355 357 2 5 9 7 11 14 13 12 18 20 19 21 21 21 19 17 10 12 7 8 17 28 27 24 21 25 26 27 26 20 21 12 4 350 12 20 13 7 12 26 33 31 33 32 30 25 21 17 22 19 12 28 44 41 42 56 150 169 167 163 148 137 135 135 133 134 134 152 169 179 183 182 190 193 187 183 175
350 351 354 354 354 359 354 355 1 1 360 3 12 14 13 15 17 17 19 19 19 17 17 13 13 15 13 13 17 20 15 16 19 20 19 16 18 15 14 1 1 360 10 13 5 2 19 22 20 25 30 34 31 31 35 32 24 21 17 23 29 32 19 15 358 19 100 125 127 132 131 134 139 136 135 137 147 156 162 169 174 175 181 184 181
351 352 357 354 354 358 358 355 356 358 359 5 10 11 10 12 14 16 19 18 18 19 16 16 17 20 20 20 17 17 14 14 16 15 14 13 13 8 4 360 359 8 7 355 353 1 7 15 23 20 10 23 34 35 35 34 36 26 15 23 29 28 12 7 19 37 47 73 104 115 119 114 116 128 129 136 145 154 162 157 154 168 181 181 182
350 352 353 355 356 354 358 355 359 3 360 5 9 12 11 9 9 14 16 19 17 14 15 13 14 13 14 19 15 14 15 17 14 13 12 11 10 7 2 5 7 12 20 23 18 7 13 24 24 20 10 12 31 35 33 32 32 32 22 22 20 17 17 28 34 38 44 53 70 85 86 91 89 88 93 97 99 109 121 137 146 155 156 157 156
350 352 353 353 356 357 355 355 359 360 4 0 4 7 7 7 12 14 10 9 16 13 13 11 13 12 16 16 16 14 12 11 11 17 13 10 7 5 4 8 7 5 0 16 22 20 24 20 9 18 24 15 20 31 32 31 31 31 33 35 32 34 33 36 41 40 39 50 59 73 84 86 83 78 79 82 84 90 96 98 102 102 111 111 111
352 355 355 354 357 355 357 355 356 360 355 353 359 4 5 8 11 7 7 10 12 13 11 9 8 8 12 9 10 13 15 15 14 12 9 5 3 5 6 7 7 10 8 6 10 24 21 18 18 19 24 25 26 23 30 35 35 34 35 35 37 39 39 40 43 48 48 50 56 61 68 72 76 77 78 81 82 78 80 77 83 91 90 94 101
347 355 357 354 354 352 351 351 355 353 350 358 358 356 357 3 4 4 4 5 9 13 10 9 11 5 4 6 7 8 12 12 13 10 5 2 1 359 2 2 8 8 10 11 7 8 18 21 21 21 21 22 23 23 21 30 38 36 37 38 40 41 39 40 43 45 47 52 55 61 66 71 70 72 70 75 77 80 76 76 72 73 82 91 91
348 351 354 357 353 348 351 354 354 354 357 356 355 357 359 358 357 358 1 5 11 7 3 7 8 8 10 8 11 11 12 10 9 6 3 5 4 1 1 5 6 5 5 7 6 4 5 357 355 9 16 15 19 17 13 21 34 40 42 44 43 43 43 44 44 46 49 49 57 59 63 65 70 69 66 64 69 73 80 79 76 74 75 76 76